Flag for U.S.A. Weather past 2 weeks in Tallahassee, Florida, U.S.A.

Now
87 °F

Thunderstorms. Broken clouds.


Feels Like: 97 °F
Forecast: 75 / 93 °F
Wind: 6 mph from South

Location: Tallahassee Regional Airport

Current Time: Sep 2, 2015 at 8:00:54 PM

Latest Report: Sep 2, 2015 at 6:53 PM


Visibility: 10 mi

Pressure: 29.97 "Hg

Humidity: 67%

Dew point: 75 °F

Location of TallahasseeLocation

Historic Weather in Tallahassee — Graph

°F

Tallahassee temperature yesterday

Maximum temperature yesterday: 89 °F (at 1:53 PM)
Minimum temperature yesterday: 72 °F (at 4:53 AM)
Average temperature yesterday: 81 °F

Past Weeks' High & Low Weather Summary

 TemperatureHumidityPressure
High99 °F (Aug 21, 11:53 AM)100% (Aug 20, 9:53 PM)30.13 "Hg (Aug 20, 9:53 PM)
Low66 °F (Aug 27, 4:53 AM)29% (Aug 26, 6:53 PM)29.85 "Hg (Aug 25, 5:53 PM)
Average82 °F75%29.99 "Hg
* Reported Aug 18 6:53 PM — Sep 2 6:53 PM, Tallahassee, Weather by CustomWeather, © 2015

Note: Actual official high and low records may vary slightly from our data, if they occured in-between our weather recording intervals... More about our weather records

Advertising

Tallahassee weather history for previous 24 hours

 ConditionsComfort  
Time TempWeatherWind HumidityBarometerVisibility
6:53 PM
Wed, Sep 2
87 °FThunderstorms. Broken clouds.6 mph67%29.97 "Hg10 mi
5:53 PM91 °FPartly sunny.14 mph61%29.96 "Hg10 mi
4:53 PM94 °FPartly sunny.7 mph49%29.97 "Hg10 mi
3:53 PM93 °FBroken clouds.6 mph50%29.98 "Hg10 mi
2:53 PM92 °FScattered clouds.8 mph52%30.01 "Hg10 mi
1:53 PM91 °FBroken clouds.6 mph54%30.03 "Hg10 mi
12:53 PM89 °FPartly sunny.No wind59%30.06 "Hg10 mi
11:53 AM87 °FPartly sunny.3 mph63%30.07 "Hg10 mi
10:53 AM85 °FBroken clouds.7 mph70%30.07 "Hg10 mi
9:53 AM80 °FOvercast.5 mph81%30.07 "Hg10 mi
8:53 AM79 °FMore clouds than sun.5 mph88%30.07 "Hg10 mi
7:53 AM78 °FOvercast.3 mph87%30.06 "Hg10 mi
6:53 AM78 °FOvercast.5 mph90%30.04 "Hg10 mi
5:53 AM78 °FOvercast.3 mph87%30.03 "Hg10 mi
5:02 AM78 °FPartly cloudy.No wind90%30.03 "Hg10 mi
4:53 AM78 °FPassing clouds.No wind90%30.02 "Hg10 mi
3:53 AM78 °FPassing clouds.No wind90%30.02 "Hg10 mi
3:04 AM78 °FPassing clouds.No wind90%30.03 "Hg10 mi
2:53 AM78 °FOvercast.3 mph90%30.03 "Hg10 mi
1:53 AM78 °FClear.No wind90%30.04 "Hg10 mi
12:53 AM78 °FClear.6 mph90%30.04 "Hg10 mi
11:53 PM
Tue, Sep 1
79 °FPassing clouds.No wind88%30.06 "Hg10 mi
10:53 PM80 °FPassing clouds.8 mph85%30.05 "Hg10 mi
9:53 PM81 °FPassing clouds.3 mph79%30.04 "Hg10 mi
8:53 PM81 °FBroken clouds.No wind79%30.02 "Hg10 mi
Weather by CustomWeather, © 2015

See weather overviewHow to use our weather pages